Regional Weather Roundup
Issued by NWS

Home | Current Version | Previous Version | Graphics & Text | Print | Product List | Glossary On
Versions: 1 2 3 4 5 6 7 8 9 10 11 12 13 14 15 16 17 18 19 20 21 22 23 24 25 26 27 28 29 30 31 32 33 34 35 36 37 38 39 40 41 42 43 44 45 46 47 48 49 50
000
ASUS43 KFSD 220702
RWRSD

WEATHER ROUNDUP FOR SOUTH DAKOTA
NATIONAL WEATHER SERVICE SIOUX FALLS SD
200 AM CDT SUN OCT 22 2017

NOTE: "FAIR" INDICATES FEW OR NO CLOUDS BELOW 12,000 FEET WITH NO
SIGNIFICANT WEATHER AND/OR OBSTRUCTIONS TO VISIBILITY.


SDZ001>005-009-010-012>017-220800-
NORTHWEST AND NORTH CENTRAL SOUTH DAKOTA

CITY           SKY/WX    TMP DP  RH WIND       PRES   REMARKS
BUFFALO          N/A     34  21  59 W8        29.86S WCI  27
MOBRIDGE       CLEAR     41  29  62 NW8       29.87S
$$

SDZ012>016-024>037-041>051-057-063-072>074-220800-
SOUTHWEST AND SOUTH CENTRAL SOUTH DAKOTA

CITY           SKY/WX    TMP DP  RH WIND       PRES   REMARKS
RAPID CTY ARPT CLEAR     33  17  51 W8        29.98R WCI  26
PIERRE         CLEAR     40  29  64 SW6       29.94R
CUSTER         CLEAR     31  11  43 W6        29.99R WCI  25
ELLSWORTH AFB  CLEAR     33  16  49 W7        29.97R WCI  26
PHILIP         CLEAR     35  26  69 W10       29.97R WCI  27
PINE RIDGE     CLEAR     24  20  84 CALM      30.01S
SPEARFISH      FAIR      32  16  51 CALM      29.98S
WINNER         FAIR      41  27  57 SW7       30.00R
$$

SDZ004>011-016>023-039-040-220800-
NORTHEAST SOUTH DAKOTA

CITY           SKY/WX    TMP DP  RH WIND       PRES   REMARKS
ABERDEEN       CLEAR     37  34  89 SW6       29.89R
WATERTOWN      CLEAR     42  38  85 SW10      29.88S
BROOKINGS      CLOUDY    40  36  86 SW7       29.93R
SISSETON         N/A     48  38  68 W13       29.85R
$$

SDZ017-020-022-023-036>040-048>070-220800-
SOUTHEAST SOUTH DAKOTA

CITY           SKY/WX    TMP DP  RH WIND       PRES   REMARKS
SIOUX FALLS    PTCLDY    44  37  76 SW3       29.97R
HURON          CLEAR     40  35  83 SW9       29.93R
CHAMBERLAIN    CLEAR     39  32  75 W6        29.98R
MITCHELL       CLEAR     41  35  79 SW6       29.97R
YANKTON        CLEAR     42  36  79 CALM      30.00R
$$

ABBREVIATIONS USED IN REMARKS
   TC - TEMPERATURE IN CELSIUS
  WCI - WIND CHILL INDEX
   HX - HEAT INDEX
  VSB - VISIBILITY




USA.gov is the U.S. government's official web portal to all federal, state and local government web resources and services.